This is the latest recevied weather packets stored in our database for station/object AD0YN. If no packets are shown the sender has not sent any weather packets the latest 10 day(s).
| Time | Temp. | Humidity | Pressure | Rain* | Wind** | Luminosity | Snow |
|---|---|---|---|---|---|---|---|
| 1777810278 | 8.89° C | 69% | 1014 hPa | 0 mm | - | 84 W/m² | - |
| 1777809973 | 8.89° C | 69% | 1014.3 hPa | 0 mm | - | 85 W/m² | - |
| 1777809672 | 8.33° C | 71% | 1014.1 hPa | 0 mm | - | 84 W/m² | - |
| 1777809369 | 8.33° C | 72% | 1014 hPa | 0 mm | - | 46 W/m² | - |
| 1777809067 | 7.78° C | 72% | 1014.1 hPa | 0 mm | - | 36 W/m² | - |
| 1777808764 | 7.78° C | 72% | 1014.1 hPa | 0 mm | - | 31 W/m² | - |
| 1777808460 | 7.78° C | 72% | 1014.3 hPa | 0 mm | - | 26 W/m² | - |
| 1777808158 | 7.78° C | 72% | 1014 hPa | 0 mm | - | 21 W/m² | - |
| 1777807856 | 7.78° C | 71% | 1013.8 hPa | 0 mm | - | 16 W/m² | - |
| 1777807554 | 7.78° C | 72% | 1013.8 hPa | 0 mm | - | 11 W/m² | - |
| 1777807250 | 7.78° C | 71% | 1014 hPa | 0 mm | - | 8 W/m² | - |
| 1777806947 | 7.78° C | 71% | 1014.2 hPa | 0 mm | - | 5 W/m² | - |
| 1777806643 | 7.78° C | 70% | 1014 hPa | 0 mm | - | 3 W/m² | - |
| 1777806339 | 7.78° C | 70% | 1014.1 hPa | 0 mm | - | 2 W/m² | - |
| 1777806036 | 8.33° C | 69% | 1013.8 hPa | 0 mm | - | 1 W/m² | - |
| 1777805732 | 8.33° C | 69% | 1014 hPa | 0 mm | - | 0 W/m² | - |
| 1777805430 | 8.33° C | 69% | 1014.1 hPa | 0 mm | - | 0 W/m² | - |
| 1777805129 | 8.33° C | 68% | 1014.1 hPa | 0 mm | - | 0 W/m² | - |
| 1777804826 | 8.33° C | 68% | 1014.2 hPa | 0 mm | - | 0 W/m² | - |
| 1777804524 | 8.33° C | 68% | 1014.1 hPa | 0 mm | - | 0 W/m² | - |
| 1777804221 | 8.33° C | 67% | 1014.2 hPa | 0 mm | - | 0 W/m² | - |
| 1777803918 | 8.33° C | 66% | 1014.3 hPa | 0 mm | - | 0 W/m² | - |
| 1777803614 | 8.33° C | 66% | 1014.2 hPa | 0 mm | - | 0 W/m² | - |
| 1777803310 | 8.33° C | 66% | 1014.5 hPa | 0 mm | - | 0 W/m² | - |
| 1777803008 | 8.33° C | 65% | 1014.3 hPa | 0 mm | - | 0 W/m² | - |
* Rain latest hour (hover to see other rain measurements)
** Current wind speed in m/s (hover to see current wind gust speed)